Location: Amarillo Post Office Jordan Station
(35.1907°N, 101.9342°W)
Time: 12:34:32
(UTC+00:00)

USA 305 - Pass Details

Date: 24 January 2021
Orbit: 565 x 578 km, 54.0° (Epoch: 02 March)

Event Time Altitude Azimuth Distance (km) Brightness Sun altitude
Exits shadow 12:44:11 23° 284° (WNW) 1,216 3.9 -14.0°
Maximum altitude 12:45:47 30° 323° (NW) 1,016 3.7 -13.6°
Drops below altitude 10° 12:49:33 10° 25° (NNE) 1,859 5.7 -12.9°
Sets 12:52:01 0° 37° (NE) 2,758 6.7 -12.4°
